Helicity
194 182 181 187 161 147 119 105 81 61 46 14 -13 26 26 46 45 38 30 45 42 51 69 73 80 73 88 95 89 100 118 115 94 91 110 74 56 100 86 69 69 60 62
237 224 202 187 176 157 146 124 95 63 53 44 -2 10 20 34 40 62 73 48 43 20 30 64 55 76 98 92 83 80 92 85 80 67 86 81 92 131 99 63 58 57 51
243 249 235 205 183 169 153 139 96 74 82 65 25 19 -0 37 60 81 61 80 41 54 35 42 68 88 95 96 84 84 78 63 60 70 77 104 89 142 119 83 61 50 51
218 261 269 229 203 193 172 148 118 75 71 93 50 21 27 53 64 84 98 106 97 75 39 60 69 65 64 82 90 77 73 56 69 82 83 108 128 137 153 117 100 69 42
182 232 244 228 239 211 189 160 129 106 88 60 63 43 21 56 82 82 101 106 134 109 93 82 105 82 70 80 70 75 65 70 67 74 95 109 126 174 174 130 110 83 59
104 200 202 233 260 223 197 173 151 124 112 92 69 54 45 36 46 87 92 102 129 149 150 133 105 75 98 94 95 69 68 58 78 80 96 109 125 146 156 151 150 124 75
167 93 123 220 246 222 195 189 191 163 134 162 188 107 76 53 48 25 85 101 114 141 147 146 154 162 142 125 107 90 78 76 74 91 103 113 143 169 220 157 146 139 124
179 72 185 161 215 238 215 207 210 194 151 192 180 188 109 75 17 33 17 61 107 150 153 143 140 152 147 143 147 147 131 111 95 99 128 120 136 162 203 209 163 163 126
39 264 61 96 202 277 278 245 209 217 185 199 199 216 188 129 123 135 85 76 78 136 135 125 144 152 162 145 130 145 166 168 146 123 129 141 138 155 173 202 187 182 137
24 80 55 62 112 255 289 260 244 245 235 228 234 208 237 174 141 116 124 119 129 92 105 125 141 149 156 162 161 162 177 179 168 162 151 149 167 169 161 181 182 197 174
5 62 57 59 116 115 245 274 258 288 287 270 255 259 232 258 201 175 145 138 133 73 78 93 99 123 162 157 163 164 181 185 168 161 155 157 171 191 187 171 167 183 195
144 66 -52 -107 186 308 123 336 302 274 277 265 267 247 234 223 218 236 186 164 151 138 144 164 127 119 126 167 177 188 200 194 162 157 165 169 184 217 205 185 166 183 231
145 83 149 27 -41 40 247 298 373 308 311 313 278 213 218 200 235 219 208 166 144 144 146 159 168 173 179 173 194 213 206 206 177 170 165 189 201 234 244 217 193 206 237
233 307 128 22 47 77 426 792 298 246 240 275 248 211 198 175 216 237 186 174 149 148 181 217 159 197 196 199 211 184 211 180 180 175 167 181 210 252 268 273 230 242 234
208 214 221 178 233 108 562 292 261 255 259 134 167 186 197 205 235 212 212 190 197 132 129 176 223 180 175 191 176 226 215 186 174 158 146 166 196 233 266 282 291 282 299
390 431 303 291 495 535 543 253 224 149 159 225 377 442 447 421 228 142 183 201 199 200 190 197 160 149 223 181 173 200 189 186 167 167 140 155 167 219 249 274 292 322 361
517 524 500 523 455 456 523 588 321 222 245 226 95 226 378 324 251 210 237 209 141 136 172 180 169 154 220 194 163 103 138 169 218 194 167 149 170 207 224 262 295 338 413
638 555 533 617 665 582 460 626 639 507 350 570 493 323 153 133 180 214 154 184 132 122 140 168 169 245 254 163 207 113 177 173 181 231 207 178 178 197 200 234 270 311 399
642 669 583 497 433 406 440 522 182 282 285 175 193 139 142 145 177 203 185 149 133 118 100 116 180 170 166 195 207 199 186 167 179 215 225 185 204 219 205 205 229 283 339
543 393 446 420 366 377 358 246 141 135 163 256 279 260 276 257 222 206 183 216 202 179 148 136 136 115 133 127 264 150 212 220 199 202 226 211 228 211 197 219 195 216 279
342 354 396 390 425 448 425 306 280 245 249 280 289 286 335 385 404 309 226 270 262 236 228 200 198 170 124 93 259 179 136 208 238 252 238 190 225 274 245 214 171 158 195
182 198 264 315 304 266 229 207 175 175 186 188 215 178 171 253 306 317 267 247 176 139 104 20 39 104 126 142 121 123 121 128 151 179 236 213 328 230 277 317 235 201 158
138 133 140 143 160 155 162 127 101 37 36 56 56 76 73 85 137 140 145 134 104 119 73 79 107 103 128 126 104 95 51 62 61 128 203 224 348 296 309 312 284 247 208
118 162 168 141 121 144 148 125 83 30 15 6 16 27 28 44 74 69 44 72 87 94 102 72 55 43 50 75 64 65 141 39 14 10 80 151 312 319 411 384 296 236 172
18 47 58 88 126 152 173 141 91 56 31 22 4 10 17 22 89 101 16 28 48 83 101 122 99 98 101 79 64 30 66 60 13 20 68 110 219 380 467 353 280 224 222
-23 -21 1 16 37 55 124 115 65 36 44 24 22 34 73 43 73 68 -31 -19 -1 28 35 61 114 134 126 130 132 71 33 18 26 5 127 190 129 235 350 258 330 344 316
Wind_Speed
38 38 33 28 23 19 16 12 11 4 5 5 11 14 11 11 9 14 9 14 14 13 14 17 18 18 19 21 18 16 16 19 21 13 8 3 13 18 18 20 18 15 12
46 44 41 35 30 24 24 19 15 11 8 7 10 15 16 6 10 9 8 12 14 11 13 16 18 17 15 17 19 13 10 16 18 13 9 7 11 15 15 19 20 17 13
54 51 49 43 36 30 28 23 22 20 15 10 10 11 13 7 6 6 8 8 11 12 13 15 17 15 14 15 15 15 12 12 13 13 12 12 6 13 13 17 20 19 16
67 55 52 48 43 37 33 30 23 23 21 14 12 9 10 5 6 9 6 4 8 9 14 12 14 12 13 13 13 12 15 14 15 16 13 11 13 8 10 17 19 21 20
71 65 57 57 49 45 41 34 30 28 27 24 17 13 9 7 4 5 5 8 8 9 7 14 17 15 14 14 13 11 13 15 16 15 16 19 17 15 8 16 21 21 19
95 72 67 61 54 51 49 43 37 33 34 29 22 17 15 11 12 8 6 5 8 12 11 7 12 13 16 17 17 17 12 14 17 20 18 18 18 22 20 19 13 14 21
103 63 80 68 59 58 52 49 46 39 39 30 37 41 36 27 22 14 11 11 10 12 12 10 8 9 11 20 20 21 19 16 18 18 21 21 20 23 21 22 19 19 20
95 97 92 80 69 63 60 54 49 51 47 37 38 38 41 47 27 20 17 15 15 12 13 14 11 9 9 9 16 22 22 21 20 18 20 24 23 23 24 25 24 24 23
96 99 97 67 71 65 66 60 54 52 53 47 40 36 37 37 41 33 22 21 19 17 15 15 15 14 14 13 13 15 21 21 22 22 20 23 24 25 26 27 28 28 28
99 97 91 97 90 78 77 71 61 54 50 49 47 42 41 33 37 40 33 22 22 23 21 20 21 20 18 17 18 19 19 26 26 24 23 24 27 29 29 30 30 30 30
106 101 95 98 103 88 92 80 69 59 55 51 49 48 51 46 41 42 41 35 25 21 22 25 25 22 28 27 25 25 25 24 28 28 28 25 26 30 33 34 36 35 34
104 85 76 70 79 98 107 83 77 67 60 56 55 59 56 53 50 49 47 43 39 39 33 30 25 26 25 34 35 31 29 31 29 27 30 30 28 30 35 38 40 40 38
84 88 79 81 88 68 93 90 78 71 66 62 56 57 62 61 56 50 55 55 53 48 46 39 30 30 29 29 34 36 33 32 33 30 30 30 31 32 35 40 41 44 43
66 66 64 70 64 61 50 49 71 72 74 69 65 61 63 63 56 52 55 57 68 59 47 46 38 31 31 29 35 35 41 37 37 35 33 31 31 32 35 41 43 44 47
58 55 52 49 56 43 28 54 49 56 58 71 77 69 64 61 56 52 51 55 58 75 69 55 47 42 36 32 35 39 42 43 41 37 36 34 33 33 35 41 45 47 47
38 32 30 34 35 39 34 46 47 41 40 40 56 54 50 46 50 55 56 56 54 54 73 54 59 60 50 40 40 39 37 42 39 40 38 36 35 34 36 41 45 49 50
12 11 22 21 25 27 25 25 31 39 41 43 47 53 42 25 36 49 54 55 65 61 64 58 55 51 52 49 61 70 57 49 45 41 40 39 36 35 37 39 42 48 52
13 7 18 10 20 25 29 26 36 41 38 43 50 37 41 37 41 50 56 60 68 71 70 74 55 54 57 61 60 71 69 66 60 56 47 47 41 38 38 41 42 45 50
24 21 26 29 22 25 37 33 35 33 25 32 28 34 40 42 48 54 56 61 67 75 76 77 74 63 64 68 61 54 49 64 72 68 57 52 50 47 43 43 44 46 50
33 27 35 32 33 36 36 37 32 34 34 36 40 42 47 51 53 58 61 67 71 76 81 86 86 78 80 78 66 58 61 55 69 73 67 66 59 53 48 48 46 48 52
46 31 35 41 42 45 44 40 43 41 42 46 48 50 54 57 59 60 63 67 71 75 77 82 81 79 84 80 82 76 74 68 68 65 70 75 69 62 62 58 54 51 53
50 45 47 52 56 49 51 47 45 49 51 53 55 54 57 61 64 65 63 63 65 73 74 74 77 82 83 83 83 83 84 79 73 57 69 78 64 70 68 64 61 56 53
52 54 55 57 57 56 54 58 57 54 55 57 58 61 61 62 66 66 65 62 62 66 66 67 70 73 80 81 82 88 85 92 97 96 66 80 62 72 69 67 62 59 59
60 56 57 57 57 60 62 60 58 57 58 58 62 62 61 64 69 68 65 64 63 67 69 69 68 71 72 78 79 85 91 89 94 99 90 98 80 84 79 77 69 67 68
64 63 62 61 62 63 67 67 64 62 62 61 62 65 68 68 72 74 71 71 71 72 73 73 71 71 72 73 77 75 82 87 90 89 83 90 89 91 87 81 72 69 70
68 68 69 70 68 69 71 71 69 68 67 67 67 70 72 74 76 77 75 76 79 80 79 77 75 75 76 77 77 74 76 83 87 89 68 83 84 81 90 79 75 70 68
Wind_Direction
260 263 262 258 256 256 253 256 267 230 170 169 148 137 127 112 68 109 97 130 119 92 102 117 123 123 121 128 127 119 120 127 137 142 146 169 302 312 304 290 284 288 287
258 258 259 258 255 250 258 254 250 244 204 202 182 160 156 109 120 107 95 132 138 122 115 127 133 132 123 133 143 134 119 131 141 152 157 176 284 301 297 286 282 281 278
257 254 257 255 252 251 252 254 257 264 265 241 220 184 168 159 145 142 130 133 149 148 141 138 142 142 139 146 150 152 147 147 148 153 155 150 235 279 281 279 278 274 271
257 250 248 250 251 251 252 252 245 251 255 246 223 224 189 192 176 163 154 142 151 152 159 158 159 152 155 157 159 158 163 165 172 170 173 172 156 223 260 274 271 269 267
251 249 247 250 247 248 250 248 247 247 252 258 250 246 246 263 250 188 185 171 173 171 162 175 174 177 175 170 173 176 175 180 186 187 185 182 182 178 188 264 271 266 256
258 251 250 247 243 245 248 247 246 247 254 254 254 254 263 263 260 264 235 226 193 185 188 190 189 190 191 190 188 190 197 198 196 199 200 200 196 194 195 188 197 214 249
274 255 252 247 243 243 244 243 247 243 249 244 262 271 277 279 277 254 244 233 218 204 205 216 215 213 215 205 206 204 204 209 209 210 208 210 212 209 211 212 220 218 210
273 262 255 242 243 244 244 243 241 249 252 241 251 265 273 276 273 243 231 230 229 237 224 215 232 254 243 232 218 210 210 213 218 223 220 216 219 223 218 216 219 220 225
271 268 265 249 244 241 241 239 238 240 247 250 246 258 270 278 283 283 233 234 237 239 254 248 242 251 256 259 252 231 216 214 217 222 229 225 225 224 226 222 216 220 224
267 265 264 254 252 248 241 236 233 231 238 242 249 245 267 280 283 290 291 262 258 231 249 262 263 254 251 260 260 261 241 221 220 224 228 233 227 223 227 227 222 219 214
263 264 264 262 257 251 245 239 233 228 231 240 243 250 257 268 278 284 291 296 290 269 257 272 273 268 280 278 276 267 253 243 227 229 227 237 235 225 225 226 226 227 230
258 257 264 269 265 246 240 236 236 234 234 242 248 256 257 260 265 274 282 290 297 300 288 286 274 273 270 284 282 271 256 253 250 238 229 233 241 234 229 226 224 228 232
253 254 257 263 267 297 245 236 234 239 241 243 249 254 261 264 268 272 276 284 289 296 299 293 278 276 276 274 281 275 265 248 247 246 240 237 238 239 231 224 225 226 227
250 257 260 270 274 284 297 253 244 245 249 251 253 256 260 262 264 271 276 281 285 292 294 295 294 276 278 274 276 266 277 257 254 249 243 243 241 239 233 225 224 225 227
255 258 265 272 276 285 334 276 259 255 261 258 260 257 253 257 261 270 276 280 283 285 293 296 291 295 285 286 279 283 274 271 259 247 240 242 246 244 237 229 226 227 227
250 250 269 278 300 298 287 276 280 275 267 283 281 282 242 258 269 273 277 283 284 287 290 296 295 302 295 292 292 288 279 270 255 240 241 240 244 253 248 236 231 229 229
254 259 279 285 318 318 308 314 289 272 281 284 309 296 293 266 278 287 290 295 292 293 291 292 296 297 292 291 297 294 289 280 274 254 249 243 244 252 251 245 238 232 229
23 36 2 325 331 355 350 326 308 291 300 297 291 296 299 305 300 294 297 299 298 300 301 299 310 298 294 297 304 297 288 279 279 276 264 262 261 261 254 249 243 236 231
42 43 20 19 354 344 3 356 358 350 324 322 340 325 313 311 308 309 309 306 306 302 302 303 307 305 303 301 298 296 285 280 281 277 272 266 268 269 262 253 249 243 233
40 48 34 25 16 8 5 4 360 351 352 339 341 336 332 328 319 312 314 311 307 305 303 300 301 304 303 300 296 294 287 282 280 279 276 275 273 273 266 262 255 249 236
35 20 16 19 13 11 5 354 6 355 351 351 349 342 341 338 332 328 320 317 315 311 308 307 305 305 304 301 300 301 289 287 279 277 279 274 278 276 276 273 270 251 243
31 29 28 26 25 17 16 7 4 3 360 0 356 346 348 345 340 337 334 333 329 320 316 310 306 305 301 303 300 300 294 295 285 284 279 279 276 275 278 275 273 261 251
23 25 24 24 21 16 10 11 10 8 6 2 359 355 350 347 345 343 337 339 336 334 332 323 315 313 308 305 302 296 292 288 282 285 280 276 277 277 279 278 273 264 256
20 17 17 15 13 10 8 6 5 4 3 359 357 352 349 346 345 340 337 337 337 335 332 330 326 319 316 311 305 298 298 292 288 283 281 280 277 276 282 281 275 273 267
21 19 16 13 9 4 4 3 0 359 357 354 352 347 345 343 338 337 335 332 331 329 328 327 325 325 323 318 312 311 304 299 291 289 291 281 278 277 279 275 275 274 274
24 22 18 15 12 7 3 359 356 352 347 345 345 342 341 340 337 336 334 331 327 325 324 324 324 323 322 320 317 317 310 302 294 290 297 292 285 283 278 273 276 272 274